User: anonymous   Login
Location: Strawberry
(45.6646°N, 111.9596°W)
Time: 09:53:09
(UTC+00:00)
Language:

DELFI C3 - Orbit

View from above orbital plane
View from above orbital plane
View from above satellite
View from above satellite

Ground track
Ground track

The orbit data is extracted from the following two-line orbital elements,

1 32789U 08021G   22333.52618856  .00015203  00000-0  74069-3 0  9994
2 32789  97.3269 354.2008 0011266 104.3103 255.9383 15.18380129796934
Epoch (UTC): 29 November 2022 12:37:42
Eccentricity: 0.0011266
inclination: 97.3269°
perigee height: 503 km
apogee height: 518 km
right ascension of ascending node: 354.2008°
argument of perigee: 104.3103°
revolutions per day: 15.18380129
mean anomaly at epoch: 255.9383°
orbit number at epoch: 79693

The dashed part of the orbit path shows where the satellite is in the earth's shadow,  

DLR